Time,TemperatureF,DewpointF,PressureIn,WindDirection,WindDirectionDegrees,WindSpeedMPH,WindSpeedGustMPH,Humidity,HourlyPrecipIn,Conditions,Clouds,dailyrainin,SoftwareType,DateUTC
2013-01-27 00:12:00,43.1,27.0,30.20,SE,146,14.0,14.0,53,0.00,,,0.00,weatherlink.com 1.10,2013-01-27 06:12:00,
2013-01-27 00:27:00,43.2,27.0,30.20,South,174,7.0,19.0,53,0.00,,,0.00,weatherlink.com 1.10,2013-01-27 06:27:00,
2013-01-27 00:42:00,42.8,28.0,30.19,SSE,157,8.0,17.0,57,0.00,,,0.00,weatherlink.com 1.10,2013-01-27 06:42:00,
2013-01-27 00:57:00,42.4,29.0,30.18,SE,146,14.0,15.0,60,0.00,,,0.00,weatherlink.com 1.10,2013-01-27 06:57:00,
2013-01-27 01:27:00,41.8,29.0,30.19,SSW,196,8.0,15.0,62,0.00,,,0.00,weatherlink.com 1.10,2013-01-27 07:27:00,
2013-01-27 01:42:00,41.5,31.0,30.19,South,171,8.0,14.0,66,0.00,,,0.00,weatherlink.com 1.10,2013-01-27 07:42:00,
2013-01-27 01:57:00,41.4,31.0,30.17,SE,143,13.0,19.0,66,0.00,,,0.00,weatherlink.com 1.10,2013-01-27 07:57:00,
2013-01-27 02:12:00,41.5,31.0,30.17,ESE,121,7.0,16.0,66,0.00,,,0.00,weatherlink.com 1.10,2013-01-27 08:12:00,
2013-01-27 02:27:00,41.2,31.0,30.17,SE,146,11.0,15.0,68,0.00,,,0.00,weatherlink.com 1.10,2013-01-27 08:27:00,
2013-01-27 02:42:00,40.1,33.0,30.18,SSE,152,11.0,14.0,75,0.01,,,0.01,weatherlink.com 1.10,2013-01-27 08:42:00,
2013-01-27 02:57:00,39.8,33.0,30.17,SSE,160,6.0,16.0,77,0.01,,,0.01,weatherlink.com 1.10,2013-01-27 08:57:00,
2013-01-27 03:12:00,39.7,33.0,30.17,SE,134,6.0,14.0,78,0.02,,,0.02,weatherlink.com 1.10,2013-01-27 09:12:00,
2013-01-27 03:28:00,39.6,34.0,30.17,SSE,157,7.0,18.0,79,0.02,,,0.00,weatherlink.com 1.10,2013-01-27 09:28:00,
2013-01-27 03:43:00,39.6,33.0,30.16,SSE,148,10.0,20.0,78,0.01,,,0.00,weatherlink.com 1.10,2013-01-27 09:43:00,
2013-01-27 03:58:00,39.6,33.0,30.16,SE,142,6.0,14.0,78,0.01,,,0.00,weatherlink.com 1.10,2013-01-27 09:58:00,
2013-01-27 04:13:00,39.4,33.0,30.15,SSE,148,6.0,20.0,79,0.00,,,0.00,weatherlink.com 1.10,2013-01-27 10:13:00,
2013-01-27 04:28:00,39.3,34.0,30.13,SSE,161,8.0,18.0,80,0.00,,,0.00,weatherlink.com 1.10,2013-01-27 10:28:00,
2013-01-27 04:43:00,38.9,34.0,30.11,SSE,158,11.0,18.0,82,0.00,,,0.00,weatherlink.com 1.10,2013-01-27 10:43:00,
2013-01-27 04:58:00,38.8,34.0,30.11,SSE,149,6.0,18.0,83,0.00,,,0.00,weatherlink.com 1.10,2013-01-27 10:58:00,
2013-01-27 05:13:00,39.1,34.0,30.11,South,174,6.0,16.0,83,0.00,,,0.00,weatherlink.com 1.10,2013-01-27 11:13:00,
2013-01-27 05:28:00,39.5,35.0,30.12,South,190,13.0,19.0,83,0.00,,,0.00,weatherlink.com 1.10,2013-01-27 11:28:00,
2013-01-27 05:43:00,39.6,35.0,30.11,SSE,148,9.0,18.0,84,0.00,,,0.00,weatherlink.com 1.10,2013-01-27 11:43:00,
2013-01-27 05:58:00,39.8,35.0,30.11,SSE,161,8.0,19.0,84,0.00,,,0.00,weatherlink.com 1.10,2013-01-27 11:58:00,
2013-01-27 06:13:00,40.0,36.0,30.11,South,170,11.0,18.0,84,0.00,,,0.00,weatherlink.com 1.10,2013-01-27 12:13:00,
2013-01-27 06:28:00,40.1,36.0,30.11,SSE,167,12.0,18.0,85,0.00,,,0.00,weatherlink.com 1.10,2013-01-27 12:28:00,
2013-01-27 06:43:00,40.4,36.0,30.12,SSW,193,10.0,20.0,85,0.00,,,0.00,weatherlink.com 1.10,2013-01-27 12:43:00,
2013-01-27 06:58:00,40.5,36.0,30.12,South,182,11.0,19.0,85,0.00,,,0.00,weatherlink.com 1.10,2013-01-27 12:58:00,
2013-01-27 07:13:00,40.5,36.0,30.12,SSW,194,13.0,19.0,84,0.00,,,0.00,weatherlink.com 1.10,2013-01-27 13:13:00,
2013-01-27 07:28:00,40.4,36.0,30.11,SE,146,11.0,19.0,84,0.00,,,0.00,weatherlink.com 1.10,2013-01-27 13:28:00,
2013-01-27 07:43:00,40.2,36.0,30.11,SE,145,6.0,15.0,84,0.00,,,0.00,weatherlink.com 1.10,2013-01-27 13:43:00,
2013-01-27 07:58:00,40.3,36.0,30.11,SSE,157,9.0,15.0,85,0.00,,,0.00,weatherlink.com 1.10,2013-01-27 13:58:00,
2013-01-27 08:13:00,40.4,37.0,30.11,SSE,165,7.0,17.0,86,0.00,,,0.00,weatherlink.com 1.10,2013-01-27 14:13:00,
2013-01-27 08:28:00,40.5,37.0,30.11,SSE,153,7.0,19.0,86,0.00,,,0.00,weatherlink.com 1.10,2013-01-27 14:28:00,
2013-01-27 08:43:00,40.5,37.0,30.10,SSE,167,11.0,15.0,86,0.00,,,0.00,weatherlink.com 1.10,2013-01-27 14:43:00,
2013-01-27 08:58:00,40.6,37.0,30.10,South,178,10.0,24.0,87,0.00,,,0.00,weatherlink.com 1.10,2013-01-27 14:58:00,
2013-01-27 09:13:00,40.7,37.0,30.10,South,182,5.0,19.0,87,0.00,,,0.00,weatherlink.com 1.10,2013-01-27 15:13:00,
2013-01-27 09:28:00,40.9,38.0,30.09,SSE,163,9.0,22.0,88,0.00,,,0.00,weatherlink.com 1.10,2013-01-27 15:28:00,
2013-01-27 09:43:00,41.1,38.0,30.09,SE,141,11.0,18.0,88,0.00,,,0.00,weatherlink.com 1.10,2013-01-27 15:43:00,
2013-01-27 09:58:00,41.4,38.0,30.09,South,189,9.0,20.0,89,0.00,,,0.00,weatherlink.com 1.10,2013-01-27 15:58:00,
2013-01-27 10:13:00,42.2,39.0,30.08,SSE,157,12.0,23.0,89,0.00,,,0.00,weatherlink.com 1.10,2013-01-27 16:13:00,
2013-01-27 10:28:00,42.7,39.0,30.08,SSE,165,5.0,21.0,88,0.00,,,0.00,weatherlink.com 1.10,2013-01-27 16:28:00,
2013-01-27 10:43:00,42.9,40.0,30.08,SSW,192,10.0,19.0,89,0.00,,,0.00,weatherlink.com 1.10,2013-01-27 16:43:00,
2013-01-27 10:58:00,43.4,40.0,30.08,SSE,153,10.0,18.0,89,0.00,,,0.00,weatherlink.com 1.10,2013-01-27 16:58:00,
2013-01-27 11:13:00,44.5,42.0,30.07,South,182,8.0,18.0,89,0.00,,,0.00,weatherlink.com 1.10,2013-01-27 17:13:00,
2013-01-27 11:28:00,45.1,42.0,30.08,SSW,193,9.0,17.0,88,0.00,,,0.00,weatherlink.com 1.10,2013-01-27 17:28:00,
2013-01-27 11:43:00,45.1,42.0,30.07,South,182,6.0,17.0,89,0.00,,,0.00,weatherlink.com 1.10,2013-01-27 17:43:00,
2013-01-27 11:58:00,45.9,43.0,30.06,SSW,192,7.0,17.0,89,0.00,,,0.00,weatherlink.com 1.10,2013-01-27 17:58:00,
2013-01-27 12:14:00,46.4,43.0,30.05,South,182,8.0,17.0,88,0.00,,,0.00,weatherlink.com 1.10,2013-01-27 18:14:00,
2013-01-27 12:29:00,47.9,44.0,30.05,South,190,15.0,21.0,87,0.00,,,0.00,weatherlink.com 1.10,2013-01-27 18:29:00,
2013-01-27 12:44:00,48.0,44.0,30.03,South,188,5.0,19.0,87,0.00,,,0.00,weatherlink.com 1.10,2013-01-27 18:44:00,
2013-01-27 12:59:00,47.9,45.0,30.03,SSW,209,10.0,18.0,88,0.00,,,0.00,weatherlink.com 1.10,2013-01-27 18:59:00,
2013-01-27 13:14:00,47.9,45.0,30.02,South,180,10.0,18.0,89,0.00,,,0.00,weatherlink.com 1.10,2013-01-27 19:14:00,
2013-01-27 13:29:00,47.2,45.0,30.01,SSW,205,7.0,14.0,91,0.01,,,0.01,weatherlink.com 1.10,2013-01-27 19:29:00,
2013-01-27 13:44:00,47.2,45.0,30.00,South,184,10.0,13.0,93,0.02,,,0.02,weatherlink.com 1.10,2013-01-27 19:44:00,
2013-01-27 13:59:00,48.1,47.0,29.99,SE,146,10.0,11.0,94,0.02,,,0.02,weatherlink.com 1.10,2013-01-27 19:59:00,
2013-01-27 14:14:00,48.3,46.0,29.99,SSE,159,10.0,15.0,93,0.02,,,0.02,weatherlink.com 1.10,2013-01-27 20:14:00,
2013-01-27 14:29:00,48.7,47.0,29.98,SSE,168,12.0,17.0,93,0.01,,,0.02,weatherlink.com 1.10,2013-01-27 20:29:00,
2013-01-27 14:44:00,48.6,47.0,29.98,SSE,159,8.0,18.0,93,0.00,,,0.02,weatherlink.com 1.10,2013-01-27 20:44:00,
2013-01-27 14:59:00,48.8,47.0,29.97,South,182,5.0,16.0,94,0.00,,,0.02,weatherlink.com 1.10,2013-01-27 20:59:00,
2013-01-27 15:14:00,49.0,47.0,29.97,SSE,156,9.0,21.0,94,0.00,,,0.02,weatherlink.com 1.10,2013-01-27 21:14:00,
2013-01-27 15:29:00,49.4,48.0,29.97,South,178,9.0,17.0,94,0.00,,,0.02,weatherlink.com 1.10,2013-01-27 21:29:00,
2013-01-27 15:44:00,49.5,48.0,29.97,South,174,9.0,15.0,94,0.00,,,0.02,weatherlink.com 1.10,2013-01-27 21:44:00,
2013-01-27 15:59:00,49.9,48.0,29.96,South,174,8.0,17.0,94,0.00,,,0.02,weatherlink.com 1.10,2013-01-27 21:59:00,
2013-01-27 16:14:00,50.2,49.0,29.96,SSW,202,9.0,16.0,94,0.00,,,0.02,weatherlink.com 1.10,2013-01-27 22:14:00,
2013-01-27 16:29:00,50.3,49.0,29.95,SSE,156,12.0,20.0,94,0.00,,,0.02,weatherlink.com 1.10,2013-01-27 22:29:00,
2013-01-27 16:44:00,50.4,49.0,29.95,SSE,165,5.0,17.0,94,0.00,,,0.02,weatherlink.com 1.10,2013-01-27 22:44:00,
2013-01-27 16:59:00,50.7,49.0,29.95,South,170,7.0,22.0,94,0.00,,,0.02,weatherlink.com 1.10,2013-01-27 22:59:00,
2013-01-27 17:14:00,50.9,49.0,29.95,SSW,197,14.0,18.0,94,0.00,,,0.02,weatherlink.com 1.10,2013-01-27 23:14:00,
2013-01-27 17:29:00,51.0,49.0,29.95,SSE,158,14.0,19.0,94,0.00,,,0.02,weatherlink.com 1.10,2013-01-27 23:29:00,
2013-01-27 17:44:00,50.9,49.0,29.94,SSW,197,17.0,18.0,94,0.00,,,0.02,weatherlink.com 1.10,2013-01-27 23:44:00,
2013-01-27 17:59:00,51.1,50.0,29.95,SSW,202,7.0,21.0,94,0.00,,,0.02,weatherlink.com 1.10,2013-01-27 23:59:00,
2013-01-27 18:14:00,51.2,50.0,29.95,SSW,199,7.0,20.0,94,0.00,,,0.02,weatherlink.com 1.10,2013-01-28 00:14:00,
2013-01-27 18:29:00,51.7,50.0,29.98,SSW,197,5.0,19.0,94,0.00,,,0.02,weatherlink.com 1.10,2013-01-28 00:29:00,
2013-01-27 18:44:00,52.0,50.0,29.99,SSW,207,12.0,18.0,94,0.00,,,0.02,weatherlink.com 1.10,2013-01-28 00:44:00,
2013-01-27 18:59:00,52.3,51.0,29.99,SSW,196,7.0,18.0,94,0.00,,,0.02,weatherlink.com 1.10,2013-01-28 00:59:00,
2013-01-27 19:14:00,52.5,51.0,29.99,SSW,199,5.0,14.0,93,0.00,,,0.02,weatherlink.com 1.10,2013-01-28 01:14:00,
2013-01-27 19:29:00,52.4,51.0,29.97,South,174,7.0,18.0,93,0.00,,,0.02,weatherlink.com 1.10,2013-01-28 01:29:00,
2013-01-27 19:44:00,52.6,51.0,29.97,SSE,150,7.0,17.0,93,0.00,,,0.02,weatherlink.com 1.10,2013-01-28 01:44:00,
2013-01-27 19:59:00,52.8,51.0,29.97,SSE,159,12.0,17.0,93,0.00,,,0.02,weatherlink.com 1.10,2013-01-28 01:59:00,
2013-01-27 20:14:00,53.1,51.0,29.97,SSW,192,12.0,18.0,93,0.00,,,0.02,weatherlink.com 1.10,2013-01-28 02:14:00,
2013-01-27 20:29:00,53.3,51.0,29.97,SSW,201,7.0,20.0,93,0.00,,,0.02,weatherlink.com 1.10,2013-01-28 02:29:00,
2013-01-27 20:44:00,53.4,52.0,29.97,South,174,14.0,21.0,93,0.00,,,0.02,weatherlink.com 1.10,2013-01-28 02:44:00,
2013-01-27 20:59:00,53.6,51.0,29.97,South,184,14.0,18.0,92,0.00,,,0.02,weatherlink.com 1.10,2013-01-28 02:59:00,
2013-01-27 21:14:00,53.9,52.0,29.96,SSW,203,13.0,17.0,92,0.00,,,0.02,weatherlink.com 1.10,2013-01-28 03:14:00,
2013-01-27 21:29:00,54.1,52.0,29.96,South,177,8.0,22.0,92,0.00,,,0.02,weatherlink.com 1.10,2013-01-28 03:29:00,
2013-01-27 21:44:00,54.2,52.0,29.96,South,176,12.0,17.0,92,0.00,,,0.02,weatherlink.com 1.10,2013-01-28 03:44:00,
2013-01-27 21:59:00,54.3,52.0,29.95,SSW,199,13.0,18.0,92,0.00,,,0.02,weatherlink.com 1.10,2013-01-28 03:59:00,
2013-01-27 22:14:00,54.5,52.0,29.96,South,182,16.0,19.0,92,0.00,,,0.02,weatherlink.com 1.10,2013-01-28 04:14:00,
2013-01-27 22:30:00,54.8,53.0,29.97,South,171,6.0,16.0,92,0.00,,,0.02,weatherlink.com 1.10,2013-01-28 04:30:00,
2013-01-27 22:45:00,55.2,53.0,29.97,South,187,12.0,16.0,92,0.00,,,0.02,weatherlink.com 1.10,2013-01-28 04:45:00,
2013-01-27 23:15:00,55.7,54.0,29.97,SSW,202,6.0,18.0,92,0.00,,,0.02,weatherlink.com 1.10,2013-01-28 05:15:00,
2013-01-27 23:30:00,55.7,54.0,29.97,South,178,9.0,17.0,92,0.00,,,0.02,weatherlink.com 1.10,2013-01-28 05:30:00,
2013-01-27 23:45:00,55.6,53.0,29.97,South,172,15.0,21.0,92,0.00,,,0.02,weatherlink.com 1.10,2013-01-28 05:45:00,